Location: Chandolas
(44.4033°N, 4.2533°E)
Time: 01:11:23
(UTC+00:00)

In-Cosmos 22 Rocket - Pass Details

Date: 15 November 2019
Orbit: 791 x 887 km, 81.2° (Epoch: 06 December)

Event Time Altitude Azimuth Distance (km) Brightness Sun altitude
Rises 04:45:29 0° 186° (S) 3,282 7.3 -20.1°
Reaches altitude 10° 04:47:50 10° 185° (S) 2,363 6.5 -19.7°
Maximum altitude 04:53:10 82° 99° (E) 821 4.1 -18.8°
Drops below altitude 10° 04:58:39 10° 12° (NNE) 2,431 6.6 -17.8°
Sets 05:01:05 0° 12° (NNE) 3,382 7.4 -17.4°
